COMS 1

Last updated on Nov. 18, 2019, 4:20 a.m. UTC

1 36744U 10032A   19320.87836685 -.00000335  00000-0  00000-0 0  9998
2 36744   0.0457 109.4502 0001236 155.9907 234.6171  1.00271169 26987
UTC
Height (km)
Latitude
Longitude
Inclination
Orbital Period
UTC large
Height (km)
Speed (km/s)
/
Latitude / Longitude
Inclination (degrees)
Orbital Period (minutes)
Azimuth
Elevation
Range (km)
Doppler Factor
iOS Compass Heading
iOS Angle

Next 30 passes for location: Hong Kong

Rise time Rise Azimuth (degrees) Set time Set Azimuth (degrees) Duration Max altitude (degrees)

No matching passes for this satellites